Location: Kellogg
(38.0159°N, 90.0546°W)
Time: 07:06:30
(UTC+00:00)

Vanguard 2 - Visible Passes

Search period start: 19 September 2024 00:00
Search period end: 29 September 2024 00:00
Orbit: 552 x 2911 km, 32.9° (Epoch: 18 September)

Date Brightness Start Highest point End Pass type
(mag) Time Alt. Az. Time Alt. Az. Time Alt. Az.
19 Sep 7.8 09:42:09 50° S 09:42:30 51° S 09:49:11 10° E visible
20 Sep 7.8 09:55:26 46° SSW 09:56:21 51° S 10:03:07 10° ESE visible
21 Sep 7.9 10:08:45 38° SW 10:10:13 49° S 10:17:00 10° ESE visible
22 Sep 10.2 08:20:58 11° E 08:20:58 11° E 08:21:06 10° E visible
22 Sep 8.2 10:22:04 30° WSW 10:24:05 44° S 10:30:48 10° ESE visible
23 Sep 10.0 08:34:18 13° ESE 08:34:18 13° ESE 08:35:01 10° ESE visible
23 Sep 8.5 10:35:25 23° WSW 10:37:57 37° S 10:44:27 10° SE visible
24 Sep 9.8 08:47:41 16° ESE 08:47:41 16° ESE 08:48:53 10° ESE visible
24 Sep 8.8 10:48:47 17° WSW 10:51:50 31° SSW 10:57:57 10° SE visible
25 Sep 9.5 09:01:04 18° ESE 09:01:04 18° ESE 09:02:42 10° ESE visible
25 Sep 9.1 11:02:11 12° WSW 11:05:42 24° SSW 11:11:13 10° SE visible
26 Sep 9.4 09:14:29 20° SE 09:14:29 20° SE 09:16:26 10° ESE visible
26 Sep 9.3 11:16:06 10° WSW 11:19:36 18° SSW 11:24:05 10° SSE visible
27 Sep 9.3 09:27:56 19° SSE 09:27:56 19° SSE 09:30:01 10° SE visible
28 Sep 9.3 09:41:24 18° SSE 09:41:24 18° SSE 09:43:24 10° SE visible
